TimeMST,TemperatureF,Dew PointF,Humidity,Sea Level PressureIn,VisibilityMPH,Wind Direction,Wind SpeedMPH,Gust SpeedMPH,PrecipitationIn,Events,Conditions,WindDirDegrees,DateUTC
12:48 AM,35.1,27.0,72,29.86,-9999.0,WNW,3.5,-,N/A,,Unknown,290,2013-02-26 07:48:00
1:48 AM,32.0,26.1,79,29.87,-9999.0,WNW,4.6,-,N/A,,Unknown,290,2013-02-26 08:48:00
2:48 AM,30.9,25.0,79,29.88,-9999.0,West,3.5,-,N/A,,Unknown,280,2013-02-26 09:48:00
3:48 AM,30.9,23.0,72,29.89,-9999.0,West,4.6,-,N/A,,Unknown,260,2013-02-26 10:48:00
4:48 AM,27.0,21.9,81,29.93,-9999.0,WNW,4.6,-,N/A,,Unknown,290,2013-02-26 11:48:00
5:48 AM,28.9,21.9,75,29.97,-9999.0,WNW,4.6,-,N/A,,Unknown,300,2013-02-26 12:48:00
6:48 AM,30.0,21.0,69,30.00,-9999.0,West,6.9,-,N/A,,Unknown,280,2013-02-26 13:48:00
7:48 AM,28.9,21.9,75,30.04,-9999.0,NNW,3.5,-,N/A,,Unknown,340,2013-02-26 14:48:00
8:48 AM,33.1,26.1,75,30.05,-9999.0,NW,15.0,-,N/A,,Unknown,310,2013-02-26 15:48:00
9:48 AM,32.0,25.0,75,30.08,-9999.0,NNW,17.3,-,N/A,,Unknown,330,2013-02-26 16:48:00
10:48 AM,32.0,24.1,73,30.09,-9999.0,NNW,16.1,-,N/A,,Unknown,330,2013-02-26 17:48:00
11:48 AM,32.0,23.0,69,30.10,-9999.0,NW,16.1,-,N/A,,Unknown,320,2013-02-26 18:48:00
12:48 PM,35.1,21.9,59,30.09,-9999.0,NW,15.0,-,N/A,,Unknown,320,2013-02-26 19:48:00
1:48 PM,35.1,21.0,57,30.10,-9999.0,NW,16.1,-,N/A,,Unknown,310,2013-02-26 20:48:00
2:48 PM,35.1,19.9,54,30.13,-9999.0,NW,17.3,28.8,N/A,,Unknown,310,2013-02-26 21:48:00
3:48 PM,34.0,19.9,56,30.17,-9999.0,NW,18.4,-,N/A,,Unknown,320,2013-02-26 22:48:00
4:48 PM,34.0,19.9,56,30.19,-9999.0,NW,21.9,27.6,N/A,,Unknown,310,2013-02-26 23:48:00
5:48 PM,30.0,19.9,66,30.22,-9999.0,NW,19.6,-,N/A,,Unknown,320,2013-02-27 00:48:00
6:48 PM,30.0,21.0,69,30.23,-9999.0,NW,13.8,-,N/A,,Unknown,310,2013-02-27 01:48:00
7:48 PM,30.0,21.9,72,30.25,-9999.0,NW,12.7,-,N/A,,Unknown,310,2013-02-27 02:48:00
8:48 PM,30.0,21.0,69,30.25,-9999.0,WNW,16.1,-,N/A,,Unknown,300,2013-02-27 03:48:00
9:48 PM,28.9,21.0,72,30.26,-9999.0,NW,13.8,-,N/A,,Unknown,310,2013-02-27 04:48:00
10:48 PM,28.0,18.0,66,30.27,-9999.0,NNW,15.0,-,N/A,,Unknown,330,2013-02-27 05:48:00
11:48 PM,27.0,19.0,72,30.29,-9999.0,NW,12.7,-,N/A,,Unknown,310,2013-02-27 06:48:00